| time (UTC) | temp C | wind direction | speed KPH | gust KPH | rain 1hr cm | rain 24hr cm | rain mn cm | humidity % | barometer mb |
| 20260504081610 | 8 | 0 | 0.0 | 3.2 | 0.00 | 0.00 | 0.00 | 60 | 1009.4 |
| 20260504080106 | 8 | 210 | 0.0 | 3.2 | 0.00 | 0.00 | 0.00 | 60 | 1009.5 |
| 20260504044557 | 8 | 150 | 1.6 | 4.8 | 0.00 | 0.00 | 0.00 | 58 | 1009.8 |
| 20260504043113 | 8 | 163 | 0.0 | 6.4 | 0.00 | 0.00 | 0.00 | 56 | 1010.0 |
| 20260504041558 | 8 | 180 | 1.6 | 6.4 | 0.00 | 0.00 | 0.00 | 54 | 1010.2 |
| 20260504040058 | 8 | 261 | 1.6 | 6.4 | 0.00 | 0.00 | 0.00 | 53 | 1010.2 |
| 20260504034556 | 8 | 227 | 1.6 | 4.8 | 0.00 | 0.00 | 0.00 | 53 | 1010.2 |
| 20260504033104 | 8 | 252 | 0.0 | 3.2 | 0.00 | 0.00 | 0.00 | 54 | 1010.0 |
| 20260504031559 | 8 | 0 | 0.0 | 3.2 | 0.00 | 0.00 | 0.00 | 52 | 1009.9 |
| 20260504030115 | 9 | 250 | 0.0 | 3.2 | 0.00 | 0.00 | 0.00 | 51 | 1009.9 |
| 20260504024555 | 9 | 0 | 0.0 | 3.2 | 0.00 | 0.00 | 0.00 | 50 | 1009.8 |
| 20260504023058 | 10 | 337 | 3.2 | 11.3 | 0.00 | 0.00 | 0.00 | 48 | 1009.9 |
| 20260504021559 | 10 | 282 | 1.6 | 4.8 | 0.00 | 0.00 | 0.00 | 45 | 1009.8 |
| 20260504020105 | 10 | 293 | 3.2 | 11.3 | 0.00 | 0.00 | 0.00 | 43 | 1009.9 |
| 20260504014604 | 10 | 281 | 1.6 | 4.8 | 0.00 | 0.00 | 0.00 | 40 | 1010.0 |
| 20260504013058 | 10 | 290 | 4.8 | 12.9 | 0.00 | 0.00 | 0.00 | 39 | 1009.9 |
| 20260504011556 | 10 | 278 | 6.4 | 12.9 | 0.00 | 0.00 | 0.00 | 38 | 1009.9 |
| 20260504010101 | 11 | 257 | 4.8 | 14.5 | 0.00 | 0.00 | 0.00 | 36 | 1009.7 |
| 20260504004556 | 11 | 326 | 4.8 | 14.5 | 0.00 | 0.00 | 0.00 | 34 | 1009.5 |
| 20260504003104 | 11 | 319 | 6.4 | 20.9 | 0.00 | 0.00 | 0.00 | 34 | 1009.3 |
| 20260504001600 | 11 | 309 | 12.9 | 22.5 | 0.00 | 0.00 | 0.00 | 33 | 1009.1 |
| 20260504000103 | 12 | 215 | 8.0 | 25.7 | 0.00 | 0.00 | 0.00 | 32 | 1008.9 |
| 20260503234558 | 12 | 320 | 8.0 | 17.7 | 0.00 | 0.00 | 0.00 | 32 | 1008.8 |
| 20260503233102 | 12 | 301 | 9.7 | 22.5 | 0.00 | 0.00 | 0.00 | 31 | 1008.4 |
| 20260503231556 | 12 | 257 | 17.7 | 30.6 | 0.00 | 0.00 | 0.00 | 30 | 1008.3 |
| 20260503230112 | 13 | 280 | 14.5 | 30.6 | 0.00 | 0.00 | 0.00 | 29 | 1008.2 |
| 20260503224556 | 13 | 313 | 16.1 | 32.2 | 0.00 | 0.00 | 0.00 | 28 | 1007.9 |
| 20260503223110 | 13 | 175 | 12.9 | 29.0 | 0.00 | 0.00 | 0.00 | 25 | 1007.8 |
| 20260503221555 | 13 | 246 | 12.9 | 30.6 | 0.00 | 0.00 | 0.00 | 24 | 1007.6 |
| 20260503220055 | 13 | 291 | 17.7 | 24.1 | 0.00 | 0.00 | 0.00 | 21 | 1007.6 |
| 20260503214559 | 13 | 254 | 8.0 | 22.5 | 0.00 | 0.00 | 0.00 | 24 | 1007.6 |
| 20260503213057 | 13 | 294 | 14.5 | 29.0 | 0.00 | 0.00 | 0.00 | 24 | 1007.6 |
| 20260503211557 | 13 | 289 | 9.7 | 29.0 | 0.00 | 0.00 | 0.00 | 25 | 1007.7 |
| 20260503210054 | 13 | 266 | 14.5 | 27.4 | 0.00 | 0.00 | 0.00 | 26 | 1007.6 |
| 20260503204557 | 13 | 301 | 6.4 | 27.4 | 0.00 | 0.00 | 0.00 | 28 | 1007.8 |
| 20260503203054 | 12 | 12 | 12.9 | 22.5 | 0.00 | 0.00 | 0.00 | 30 | 1008.0 |
| 20260503201556 | 12 | 294 | 8.0 | 30.6 | 0.00 | 0.00 | 0.00 | 30 | 1008.2 |
| 20260503200058 | 12 | 242 | 11.3 | 22.5 | 0.00 | 0.00 | 0.00 | 31 | 1008.4 |
| 20260503194616 | 12 | 248 | 9.7 | 29.0 | 0.00 | 0.00 | 0.00 | 32 | 1008.5 |
| 20260503193056 | 11 | 328 | 9.7 | 24.1 | 0.00 | 0.00 | 0.00 | 31 | 1008.8 |
| 20260503191601 | 11 | 322 | 12.9 | 25.7 | 0.00 | 0.00 | 0.00 | 32 | 1009.0 |
| 20260503190057 | 11 | 273 | 6.4 | 22.5 | 0.00 | 0.00 | 0.00 | 33 | 1009.2 |
| 20260503184557 | 10 | 352 | 14.5 | 27.4 | 0.00 | 0.00 | 0.00 | 34 | 1009.4 |
| 20260503183101 | 10 | 302 | 9.7 | 24.1 | 0.00 | 0.00 | 0.00 | 34 | 1009.4 |
| 20260503181607 | 10 | 352 | 11.3 | 25.7 | 0.00 | 0.00 | 0.00 | 34 | 1009.5 |
| 20260503180056 | 10 | 5 | 8.0 | 24.1 | 0.00 | 0.00 | 0.00 | 34 | 1009.5 |
| 20260503174606 | 10 | 247 | 11.3 | 27.4 | 0.00 | 0.00 | 0.00 | 34 | 1009.7 |
| 20260503173058 | 10 | 290 | 9.7 | 20.9 | 0.00 | 0.00 | 0.00 | 34 | 1009.8 |
| 20260503171557 | 10 | 344 | 8.0 | 27.4 | 0.00 | 0.00 | 0.00 | 34 | 1009.8 |
| 20260503170107 | 10 | 304 | 12.9 | 20.9 | 0.00 | 0.00 | 0.00 | 35 | 1009.8 |
| 20260503120117 | 6 | 344 | 4.8 | 14.5 | 0.00 | 0.00 | 0.00 | 60 | 1010.6 |